Location: Emporia
(38.4040°N, 96.1810°W)
Time: 21:46:55
(UTC-05:00)

ISS - Visible Passes

Search period start: 24 October 2014 00:00
Search period end: 02 November 2014 23:00
Orbit: 412 x 416 km, 51.6° (Epoch: 24 October)

Date Brightness Start Highest point End Pass type
(mag) Time Alt. Az. Time Alt. Az. Time Alt. Az.
24 Oct -3.2 20:13:55 10° NW 20:16:57 71° NNW 20:16:57 71° NNW visible
25 Oct -2.9 19:24:49 10° NW 19:28:03 46° NE 19:30:14 18° ESE visible
25 Oct -0.1 21:02:14 10° W 21:03:08 14° W 21:03:08 14° W visible
26 Oct -1.6 20:12:24 10° WNW 20:15:24 31° SW 20:16:35 24° S visible
27 Oct -2.7 19:22:55 10° WNW 19:26:13 60° SW 19:29:30 10° SE visible
28 Oct 0.0 20:12:22 10° WSW 20:13:10 11° SW 20:13:58 10° SW visible
29 Oct -0.5 19:21:31 10° W 19:24:01 20° SW 19:26:30 10° S visible
